THOR ABLESTAR DEB, 658

Orbit data source: Space-Track

THOR ABLESTAR DEB, 658 is space debris in LEO originally from a launch on Thu, 29 Jun 1961 UTC launched from the Air Force Eastern Test Range (AFETR). Debris objects in space refer to the collection of defunct objects orbiting the Earth. Examples of debris include non-operational satellites, rocket bodies, and fragments generated from explosions, collisions, or faulty payload assembly.

Loading next visibility...
Identifier
658, 1961-015HK
Orbit
LEO
Country
Flag of USUS
Related business
Manufacturer
Unknown
Mission
Spacecraft
Bus & Motor
Unknown
Mass
Unknown
Launch date (UTC)
1961-06-29 (64 years ago)
Launch vehicle
Unknown
Launch site
Air Force Eastern Test Range (AFETR)
Object type
Payload
Rocket body
Debris
Shape & HBR
Unknown shape, 0.1 m
Radar Cross Section
Small (<0.1 m²)

Expand to show TLE details & history
Last TLE update: 14 hours ago

TLE from 14 hours ago
0 THOR ABLESTAR DEB
1 00658U 61015HK  25289.39157921  .00000330  00000-0  50418-3 0  9992
2 00658  65.8663 342.9105 0353212 327.6403  30.3406 13.41218221 26896
Epoch: 2025-10-16T09:23Z
TLE epoch observation values (Epoch: 2025-10-16T09:23:52.443Z)
Latitude
Longitude
176.79002°
Altitude
881.076 km
Speed
7.523 km/s
True Right ascension
22h 51m 38s
True Declination
0° 00' 00"
Sunlit
Object was in full shadow at epoch
Visualization orbit readout
Latitude
Unknown
Longitude
Unknown
Altitude
Unknown
Speed
Unknown
Apparent Right ascension
Unknown
Apparent Declination
Unknown
Sunlit
N/A
Visualization observer readout
Local Sidereal Time
18:02:19
Azimuth
Unknown
Elevation
Unknown
Doppler factor
Unknown
Orbital elements
Apogee altitude
1,367.532 km
Perigee altitude
839.027 km
Semi-major axis
7,481.417 km
Eccentricity
0.03532
Inclination
65.8663°
RAAN
342.9105°
Arg. of periapsis
327.6403°
True anomaly
32.46553°
Mean anomaly
30.3406°
Eccentric anomaly
31.39484°
Mean motion
3.35403 °/min
Orbital period
107.33 mins
BSTAR
0.00050418

Documentation

Showing up to 5 results
|